GALAXY 30 (G-30)

Last updated on Tue Sep 16 2025 00:02:50 GMT+0000 (Coordinated Universal Time)

1 46114U 20056C 25257.98881454 .00000000 00000+0 00000+0 0 9995 2 46114 0.0233 142.0350 0002272 45.3253 37.8201 1.00272116 18534
UTC large
Height (km)
Speed (km/s)
/
Latitude / Longitude
Inclination (degrees)
Orbital Period (minutes)
Azimuth
Elevation
Range (km)
Doppler Factor

Next 0 passes for location: London (51.5072 / 0.1276)

Sorry there are no passes over London.